owner,sensor,date,latitude,longitude,vertical_datum,sea_water_practical_salinity,qcFlag 
ENP,ioos.station.NOAA.NDBC:JKYF1:1,2017-10-01T00:00:00Z,25.0530,-80.9040,1.5,33.33,1111122 
ENP,ioos.station.NOAA.NDBC:JKYF1:1,2017-10-01T02:00:00Z,25.0530,-80.9040,1.5,33.33,1111122 
ENP,ioos.station.NOAA.NDBC:JKYF1:1,2017-10-01T03:00:00Z,25.0530,-80.9040,1.5,33.34,1111122 
ENP,ioos.station.NOAA.NDBC:JKYF1:1,2017-10-01T05:00:00Z,25.0530,-80.9040,1.5,33.35,1111122 
ENP,ioos.station.NOAA.NDBC:JKYF1:1,2017-10-01T06:00:00Z,25.0530,-80.9040,1.5,33.45,1111122 
ENP,ioos.station.NOAA.NDBC:JKYF1:1,2017-10-01T07:00:00Z,25.0530,-80.9040,1.5,33.51,1111122 
ENP,ioos.station.NOAA.NDBC:JKYF1:1,2017-10-01T08:00:00Z,25.0530,-80.9040,1.5,33.5,1111122 
ENP,ioos.station.NOAA.NDBC:JKYF1:1,2017-10-01T11:00:00Z,25.0530,-80.9040,1.5,33.4,1111122 
ENP,ioos.station.NOAA.NDBC:JKYF1:1,2017-10-01T12:00:00Z,25.0530,-80.9040,1.5,33.33,1111122 
ENP,ioos.station.NOAA.NDBC:JKYF1:1,2017-10-01T13:00:00Z,25.0530,-80.9040,1.5,33.27,1111122 
ENP,ioos.station.NOAA.NDBC:JKYF1:1,2017-10-01T14:00:00Z,25.0530,-80.9040,1.5,33.2,1111122 
ENP,ioos.station.NOAA.NDBC:JKYF1:1,2017-10-01T15:00:00Z,25.0530,-80.9040,1.5,33.22,1111122 
ENP,ioos.station.NOAA.NDBC:JKYF1:1,2017-10-01T16:00:00Z,25.0530,-80.9040,1.5,33.06,1111122 
ENP,ioos.station.NOAA.NDBC:JKYF1:1,2017-10-01T17:00:00Z,25.0530,-80.9040,1.5,32.9,1111122 
ENP,ioos.station.NOAA.NDBC:JKYF1:1,2017-10-01T18:00:00Z,25.0530,-80.9040,1.5,32.9,1111122 
ENP,ioos.station.NOAA.NDBC:JKYF1:1,2017-10-01T19:00:00Z,25.0530,-80.9040,1.5,32.9,1111122 
ENP,ioos.station.NOAA.NDBC:JKYF1:1,2017-10-01T20:00:00Z,25.0530,-80.9040,1.5,33.08,1111122 
ENP,ioos.station.NOAA.NDBC:JKYF1:1,2017-10-01T21:00:00Z,25.0530,-80.9040,1.5,33.21,1111122 
ENP,ioos.station.NOAA.NDBC:JKYF1:1,2017-10-01T22:00:00Z,25.0530,-80.9040,1.5,33.31,1111122 
ENP,ioos.station.NOAA.NDBC:JKYF1:1,2017-10-01T23:00:00Z,25.0530,-80.9040,1.5,33.21,1111122 
ENP,ioos.station.NOAA.NDBC:JKYF1:1,2017-10-02T00:00:00Z,25.0530,-80.9040,1.5,32.97,1111122 
ENP,ioos.station.NOAA.NDBC:JKYF1:1,2017-10-02T02:00:00Z,25.0530,-80.9040,1.5,32.25,1111122 
ENP,ioos.station.NOAA.NDBC:JKYF1:1,2017-10-02T03:00:00Z,25.0530,-80.9040,1.5,31.98,1111122 
ENP,ioos.station.NOAA.NDBC:JKYF1:1,2017-10-02T05:00:00Z,25.0530,-80.9040,1.5,32.33,1111122 
ENP,ioos.station.NOAA.NDBC:JKYF1:1,2017-10-02T06:00:00Z,25.0530,-80.9040,1.5,32.25,1111122 
ENP,ioos.station.NOAA.NDBC:JKYF1:1,2017-10-02T07:00:00Z,25.0530,-80.9040,1.5,32.36,1111122 
ENP,ioos.station.NOAA.NDBC:JKYF1:1,2017-10-02T08:00:00Z,25.0530,-80.9040,1.5,32.34,1111122 
ENP,ioos.station.NOAA.NDBC:JKYF1:1,2017-10-02T10:00:00Z,25.0530,-80.9040,1.5,31.85,1111122 
ENP,ioos.station.NOAA.NDBC:JKYF1:1,2017-10-02T11:00:00Z,25.0530,-80.9040,1.5,31.64,1111122 
ENP,ioos.station.NOAA.NDBC:JKYF1:1,2017-10-02T12:00:00Z,25.0530,-80.9040,1.5,31.47,1111122 
ENP,ioos.station.NOAA.NDBC:JKYF1:1,2017-10-02T13:00:00Z,25.0530,-80.9040,1.5,31.21,1111122 
ENP,ioos.station.NOAA.NDBC:JKYF1:1,2017-10-02T14:00:00Z,25.0530,-80.9040,1.5,31.17,1111122 
ENP,ioos.station.NOAA.NDBC:JKYF1:1,2017-10-02T15:00:00Z,25.0530,-80.9040,1.5,31.19,1111122 
ENP,ioos.station.NOAA.NDBC:JKYF1:1,2017-10-02T16:00:00Z,25.0530,-80.9040,1.5,31.29,1111122 
ENP,ioos.station.NOAA.NDBC:JKYF1:1,2017-10-02T17:00:00Z,25.0530,-80.9040,1.5,31.38,1111122 
ENP,ioos.station.NOAA.NDBC:JKYF1:1,2017-10-02T18:00:00Z,25.0530,-80.9040,1.5,31.39,1111122 
ENP,ioos.station.NOAA.NDBC:JKYF1:1,2017-10-02T19:00:00Z,25.0530,-80.9040,1.5,31.33,1111122 
ENP,ioos.station.NOAA.NDBC:JKYF1:1,2017-10-02T20:00:00Z,25.0530,-80.9040,1.5,31.34,1111122 
ENP,ioos.station.NOAA.NDBC:JKYF1:1,2017-10-02T21:00:00Z,25.0530,-80.9040,1.5,31.37,1111122 
ENP,ioos.station.NOAA.NDBC:JKYF1:1,2017-10-02T22:00:00Z,25.0530,-80.9040,1.5,31.42,1111122 
ENP,ioos.station.NOAA.NDBC:JKYF1:1,2017-10-02T23:00:00Z,25.0530,-80.9040,1.5,31.85,1111122 
ENP,ioos.station.NOAA.NDBC:JKYF1:1,2017-10-03T00:00:00Z,25.0530,-80.9040,1.5,32.25,1111122 
ENP,ioos.station.NOAA.NDBC:JKYF1:1,2017-10-03T02:00:00Z,25.0530,-80.9040,1.5,32.0,1111122 
ENP,ioos.station.NOAA.NDBC:JKYF1:1,2017-10-03T03:00:00Z,25.0530,-80.9040,1.5,31.67,1111122 
ENP,ioos.station.NOAA.NDBC:JKYF1:1,2017-10-03T05:00:00Z,25.0530,-80.9040,1.5,31.56,1111122 
ENP,ioos.station.NOAA.NDBC:JKYF1:1,2017-10-03T06:00:00Z,25.0530,-80.9040,1.5,31.56,1111122 
ENP,ioos.station.NOAA.NDBC:JKYF1:1,2017-10-03T07:00:00Z,25.0530,-80.9040,1.5,31.56,1111122 
ENP,ioos.station.NOAA.NDBC:JKYF1:1,2017-10-03T08:00:00Z,25.0530,-80.9040,1.5,31.63,1111122 
ENP,ioos.station.NOAA.NDBC:JKYF1:1,2017-10-03T11:00:00Z,25.0530,-80.9040,1.5,32.16,1111122 
ENP,ioos.station.NOAA.NDBC:JKYF1:1,2017-10-03T12:00:00Z,25.0530,-80.9040,1.5,32.19,1111122 
ENP,ioos.station.NOAA.NDBC:JKYF1:1,2017-10-03T13:00:00Z,25.0530,-80.9040,1.5,32.26,1111122 
ENP,ioos.station.NOAA.NDBC:JKYF1:1,2017-10-03T14:00:00Z,25.0530,-80.9040,1.5,32.3,1111122 
ENP,ioos.station.NOAA.NDBC:JKYF1:1,2017-10-03T15:00:00Z,25.0530,-80.9040,1.5,32.5,1111122 
ENP,ioos.station.NOAA.NDBC:JKYF1:1,2017-10-03T16:00:00Z,25.0530,-80.9040,1.5,32.4,1111122 
ENP,ioos.station.NOAA.NDBC:JKYF1:1,2017-10-03T17:00:00Z,25.0530,-80.9040,1.5,32.1,1111122 
ENP,ioos.station.NOAA.NDBC:JKYF1:1,2017-10-03T18:00:00Z,25.0530,-80.9040,1.5,31.9,1111122 
ENP,ioos.station.NOAA.NDBC:JKYF1:1,2017-10-03T19:00:00Z,25.0530,-80.9040,1.5,31.77,1111122 
ENP,ioos.station.NOAA.NDBC:JKYF1:1,2017-10-03T20:00:00Z,25.0530,-80.9040,1.5,31.91,1111122 
ENP,ioos.station.NOAA.NDBC:JKYF1:1,2017-10-03T21:00:00Z,25.0530,-80.9040,1.5,32.25,1111122 
ENP,ioos.station.NOAA.NDBC:JKYF1:1,2017-10-03T22:00:00Z,25.0530,-80.9040,1.5,32.65,1111122 
ENP,ioos.station.NOAA.NDBC:JKYF1:1,2017-10-03T23:00:00Z,25.0530,-80.9040,1.5,32.79,1111122 
ENP,ioos.station.NOAA.NDBC:JKYF1:1,2017-10-04T00:00:00Z,25.0530,-80.9040,1.5,32.96,1111122 
ENP,ioos.station.NOAA.NDBC:JKYF1:1,2017-10-04T02:00:00Z,25.0530,-80.9040,1.5,33.15,1111122 
ENP,ioos.station.NOAA.NDBC:JKYF1:1,2017-10-04T03:00:00Z,25.0530,-80.9040,1.5,33.19,1111122 
ENP,ioos.station.NOAA.NDBC:JKYF1:1,2017-10-04T05:00:00Z,25.0530,-80.9040,1.5,33.22,1111122 
ENP,ioos.station.NOAA.NDBC:JKYF1:1,2017-10-04T06:00:00Z,25.0530,-80.9040,1.5,33.18,1111122 
ENP,ioos.station.NOAA.NDBC:JKYF1:1,2017-10-04T07:00:00Z,25.0530,-80.9040,1.5,33.12,1111122 
ENP,ioos.station.NOAA.NDBC:JKYF1:1,2017-10-04T08:00:00Z,25.0530,-80.9040,1.5,33.09,1111122 
ENP,ioos.station.NOAA.NDBC:JKYF1:1,2017-10-04T10:00:00Z,25.0530,-80.9040,1.5,33.02,1111122 
ENP,ioos.station.NOAA.NDBC:JKYF1:1,2017-10-04T11:00:00Z,25.0530,-80.9040,1.5,33.02,1111122 
ENP,ioos.station.NOAA.NDBC:JKYF1:1,2017-10-04T12:00:00Z,25.0530,-80.9040,1.5,33.01,1111122 
ENP,ioos.station.NOAA.NDBC:JKYF1:1,2017-10-04T13:00:00Z,25.0530,-80.9040,1.5,32.98,1111122 
ENP,ioos.station.NOAA.NDBC:JKYF1:1,2017-10-04T14:00:00Z,25.0530,-80.9040,1.5,32.92,1111122 
ENP,ioos.station.NOAA.NDBC:JKYF1:1,2017-10-04T15:00:00Z,25.0530,-80.9040,1.5,32.88,1111122 
ENP,ioos.station.NOAA.NDBC:JKYF1:1,2017-10-04T16:00:00Z,25.0530,-80.9040,1.5,32.9,1111122 
ENP,ioos.station.NOAA.NDBC:JKYF1:1,2017-10-04T17:00:00Z,25.0530,-80.9040,1.5,32.9,1111122 
ENP,ioos.station.NOAA.NDBC:JKYF1:1,2017-10-04T18:00:00Z,25.0530,-80.9040,1.5,32.98,1111122 
ENP,ioos.station.NOAA.NDBC:JKYF1:1,2017-10-04T19:00:00Z,25.0530,-80.9040,1.5,33.19,1111122 
ENP,ioos.station.NOAA.NDBC:JKYF1:1,2017-10-04T20:00:00Z,25.0530,-80.9040,1.5,33.2,1111122 
ENP,ioos.station.NOAA.NDBC:JKYF1:1,2017-10-04T21:00:00Z,25.0530,-80.9040,1.5,33.09,1111122 
ENP,ioos.station.NOAA.NDBC:JKYF1:1,2017-10-04T22:00:00Z,25.0530,-80.9040,1.5,33.01,1111122 
ENP,ioos.station.NOAA.NDBC:JKYF1:1,2017-10-04T23:00:00Z,25.0530,-80.9040,1.5,33.11,1111122 
ENP,ioos.station.NOAA.NDBC:JKYF1:1,2017-10-05T00:00:00Z,25.0530,-80.9040,1.5,33.2,1111122 
ENP,ioos.station.NOAA.NDBC:JKYF1:1,2017-10-05T02:00:00Z,25.0530,-80.9040,1.5,33.31,1111122 
ENP,ioos.station.NOAA.NDBC:JKYF1:1,2017-10-05T03:00:00Z,25.0530,-80.9040,1.5,33.25,1111122 
ENP,ioos.station.NOAA.NDBC:JKYF1:1,2017-10-05T05:00:00Z,25.0530,-80.9040,1.5,33.12,1111122 
ENP,ioos.station.NOAA.NDBC:JKYF1:1,2017-10-05T06:00:00Z,25.0530,-80.9040,1.5,33.13,1111122 
ENP,ioos.station.NOAA.NDBC:JKYF1:1,2017-10-05T07:00:00Z,25.0530,-80.9040,1.5,33.17,1111122 
ENP,ioos.station.NOAA.NDBC:JKYF1:1,2017-10-05T08:00:00Z,25.0530,-80.9040,1.5,33.14,1111122 
ENP,ioos.station.NOAA.NDBC:JKYF1:1,2017-10-05T10:00:00Z,25.0530,-80.9040,1.5,33.11,1111122 
ENP,ioos.station.NOAA.NDBC:JKYF1:1,2017-10-05T12:00:00Z,25.0530,-80.9040,1.5,32.68,1111122 
ENP,ioos.station.NOAA.NDBC:JKYF1:1,2017-10-05T13:00:00Z,25.0530,-80.9040,1.5,32.03,1111122 
ENP,ioos.station.NOAA.NDBC:JKYF1:1,2017-10-05T14:00:00Z,25.0530,-80.9040,1.5,31.85,1111122 
ENP,ioos.station.NOAA.NDBC:JKYF1:1,2017-10-05T15:00:00Z,25.0530,-80.9040,1.5,31.38,1111122 
ENP,ioos.station.NOAA.NDBC:JKYF1:1,2017-10-05T16:00:00Z,25.0530,-80.9040,1.5,30.63,1111122 
ENP,ioos.station.NOAA.NDBC:JKYF1:1,2017-10-05T17:00:00Z,25.0530,-80.9040,1.5,30.58,1111122 
ENP,ioos.station.NOAA.NDBC:JKYF1:1,2017-10-05T18:00:00Z,25.0530,-80.9040,1.5,30.62,1111122 
ENP,ioos.station.NOAA.NDBC:JKYF1:1,2017-10-05T19:00:00Z,25.0530,-80.9040,1.5,31.51,1111122 
ENP,ioos.station.NOAA.NDBC:JKYF1:1,2017-10-05T20:00:00Z,25.0530,-80.9040,1.5,31.94,1111122 
ENP,ioos.station.NOAA.NDBC:JKYF1:1,2017-10-05T21:00:00Z,25.0530,-80.9040,1.5,32.22,1111122 
ENP,ioos.station.NOAA.NDBC:JKYF1:1,2017-10-05T22:00:00Z,25.0530,-80.9040,1.5,32.24,1111122 
ENP,ioos.station.NOAA.NDBC:JKYF1:1,2017-10-05T23:00:00Z,25.0530,-80.9040,1.5,31.77,1111122 
ENP,ioos.station.NOAA.NDBC:JKYF1:1,2017-10-06T00:00:00Z,25.0530,-80.9040,1.5,31.55,1111122 
ENP,ioos.station.NOAA.NDBC:JKYF1:1,2017-10-06T03:00:00Z,25.0530,-80.9040,1.5,31.14,1111122 
ENP,ioos.station.NOAA.NDBC:JKYF1:1,2017-10-06T05:00:00Z,25.0530,-80.9040,1.5,31.16,1111122 
ENP,ioos.station.NOAA.NDBC:JKYF1:1,2017-10-06T06:00:00Z,25.0530,-80.9040,1.5,31.22,1111122 
ENP,ioos.station.NOAA.NDBC:JKYF1:1,2017-10-06T07:00:00Z,25.0530,-80.9040,1.5,31.74,1111122 
ENP,ioos.station.NOAA.NDBC:JKYF1:1,2017-10-06T08:00:00Z,25.0530,-80.9040,1.5,32.38,1111122 
ENP,ioos.station.NOAA.NDBC:JKYF1:1,2017-10-06T10:00:00Z,25.0530,-80.9040,1.5,32.29,1111122 
ENP,ioos.station.NOAA.NDBC:JKYF1:1,2017-10-06T11:00:00Z,25.0530,-80.9040,1.5,32.29,1111122 
ENP,ioos.station.NOAA.NDBC:JKYF1:1,2017-10-06T12:00:00Z,25.0530,-80.9040,1.5,32.13,1111122 
ENP,ioos.station.NOAA.NDBC:JKYF1:1,2017-10-06T13:00:00Z,25.0530,-80.9040,1.5,32.04,1111122 
ENP,ioos.station.NOAA.NDBC:JKYF1:1,2017-10-06T14:00:00Z,25.0530,-80.9040,1.5,31.99,1111122 
ENP,ioos.station.NOAA.NDBC:JKYF1:1,2017-10-06T15:00:00Z,25.0530,-80.9040,1.5,31.75,1111122 
ENP,ioos.station.NOAA.NDBC:JKYF1:1,2017-10-06T16:00:00Z,25.0530,-80.9040,1.5,31.63,1111122 
ENP,ioos.station.NOAA.NDBC:JKYF1:1,2017-10-06T17:00:00Z,25.0530,-80.9040,1.5,31.76,1111122 
ENP,ioos.station.NOAA.NDBC:JKYF1:1,2017-10-06T18:00:00Z,25.0530,-80.9040,1.5,31.81,1111122 
ENP,ioos.station.NOAA.NDBC:JKYF1:1,2017-10-06T19:00:00Z,25.0530,-80.9040,1.5,31.93,1111122 
ENP,ioos.station.NOAA.NDBC:JKYF1:1,2017-10-06T20:00:00Z,25.0530,-80.9040,1.5,32.35,1111122 
ENP,ioos.station.NOAA.NDBC:JKYF1:1,2017-10-06T21:00:00Z,25.0530,-80.9040,1.5,32.53,1111122 
ENP,ioos.station.NOAA.NDBC:JKYF1:1,2017-10-06T22:00:00Z,25.0530,-80.9040,1.5,32.46,1111122 
ENP,ioos.station.NOAA.NDBC:JKYF1:1,2017-10-06T23:00:00Z,25.0530,-80.9040,1.5,32.42,1111122 
ENP,ioos.station.NOAA.NDBC:JKYF1:1,2017-10-07T00:00:00Z,25.0530,-80.9040,1.5,32.41,1111122 
ENP,ioos.station.NOAA.NDBC:JKYF1:1,2017-10-07T02:00:00Z,25.0530,-80.9040,1.5,32.45,1111122 
ENP,ioos.station.NOAA.NDBC:JKYF1:1,2017-10-07T03:00:00Z,25.0530,-80.9040,1.5,32.46,1111122 
ENP,ioos.station.NOAA.NDBC:JKYF1:1,2017-10-07T05:00:00Z,25.0530,-80.9040,1.5,32.33,1111122 
ENP,ioos.station.NOAA.NDBC:JKYF1:1,2017-10-07T06:00:00Z,25.0530,-80.9040,1.5,32.32,1111122 
ENP,ioos.station.NOAA.NDBC:JKYF1:1,2017-10-07T07:00:00Z,25.0530,-80.9040,1.5,32.25,1111122 
ENP,ioos.station.NOAA.NDBC:JKYF1:1,2017-10-07T08:00:00Z,25.0530,-80.9040,1.5,32.63,1111122 
ENP,ioos.station.NOAA.NDBC:JKYF1:1,2017-10-07T10:00:00Z,25.0530,-80.9040,1.5,32.36,1111122 
ENP,ioos.station.NOAA.NDBC:JKYF1:1,2017-10-07T11:00:00Z,25.0530,-80.9040,1.5,32.36,1111122 
ENP,ioos.station.NOAA.NDBC:JKYF1:1,2017-10-07T12:00:00Z,25.0530,-80.9040,1.5,32.4,1111122 
ENP,ioos.station.NOAA.NDBC:JKYF1:1,2017-10-07T13:00:00Z,25.0530,-80.9040,1.5,32.46,1111122 
ENP,ioos.station.NOAA.NDBC:JKYF1:1,2017-10-07T14:00:00Z,25.0530,-80.9040,1.5,32.52,1111122 
ENP,ioos.station.NOAA.NDBC:JKYF1:1,2017-10-07T15:00:00Z,25.0530,-80.9040,1.5,32.53,1111122 
ENP,ioos.station.NOAA.NDBC:JKYF1:1,2017-10-07T16:00:00Z,25.0530,-80.9040,1.5,32.49,1111122 
ENP,ioos.station.NOAA.NDBC:JKYF1:1,2017-10-07T17:00:00Z,25.0530,-80.9040,1.5,32.46,1111122 
ENP,ioos.station.NOAA.NDBC:JKYF1:1,2017-10-07T18:00:00Z,25.0530,-80.9040,1.5,32.47,1111122 
ENP,ioos.station.NOAA.NDBC:JKYF1:1,2017-10-07T19:00:00Z,25.0530,-80.9040,1.5,32.5,1111122 
ENP,ioos.station.NOAA.NDBC:JKYF1:1,2017-10-07T20:00:00Z,25.0530,-80.9040,1.5,32.8,1111122 
ENP,ioos.station.NOAA.NDBC:JKYF1:1,2017-10-07T21:00:00Z,25.0530,-80.9040,1.5,32.79,1111122 
ENP,ioos.station.NOAA.NDBC:JKYF1:1,2017-10-07T22:00:00Z,25.0530,-80.9040,1.5,32.25,1111122 
ENP,ioos.station.NOAA.NDBC:JKYF1:1,2017-10-07T23:00:00Z,25.0530,-80.9040,1.5,32.07,1111122 
ENP,ioos.station.NOAA.NDBC:JKYF1:1,2017-10-08T00:00:00Z,25.0530,-80.9040,1.5,32.0,1111122 
ENP,ioos.station.NOAA.NDBC:JKYF1:1,2017-10-08T03:00:00Z,25.0530,-80.9040,1.5,32.28,1111122 
ENP,ioos.station.NOAA.NDBC:JKYF1:1,2017-10-08T05:00:00Z,25.0530,-80.9040,1.5,32.61,1111122 
ENP,ioos.station.NOAA.NDBC:JKYF1:1,2017-10-08T06:00:00Z,25.0530,-80.9040,1.5,32.67,1111122 
ENP,ioos.station.NOAA.NDBC:JKYF1:1,2017-10-08T07:00:00Z,25.0530,-80.9040,1.5,32.68,1111122 
ENP,ioos.station.NOAA.NDBC:JKYF1:1,2017-10-08T08:00:00Z,25.0530,-80.9040,1.5,32.68,1111122 
ENP,ioos.station.NOAA.NDBC:JKYF1:1,2017-10-08T10:00:00Z,25.0530,-80.9040,1.5,31.41,1111122 
ENP,ioos.station.NOAA.NDBC:JKYF1:1,2017-10-08T11:00:00Z,25.0530,-80.9040,1.5,31.43,1111122 
ENP,ioos.station.NOAA.NDBC:JKYF1:1,2017-10-08T12:00:00Z,25.0530,-80.9040,1.5,31.28,1111122 
ENP,ioos.station.NOAA.NDBC:JKYF1:1,2017-10-08T13:00:00Z,25.0530,-80.9040,1.5,31.33,1111122 
ENP,ioos.station.NOAA.NDBC:JKYF1:1,2017-10-08T14:00:00Z,25.0530,-80.9040,1.5,31.52,1111122 
ENP,ioos.station.NOAA.NDBC:JKYF1:1,2017-10-08T15:00:00Z,25.0530,-80.9040,1.5,31.8,1111122 
ENP,ioos.station.NOAA.NDBC:JKYF1:1,2017-10-08T16:00:00Z,25.0530,-80.9040,1.5,32.08,1111122 
ENP,ioos.station.NOAA.NDBC:JKYF1:1,2017-10-08T17:00:00Z,25.0530,-80.9040,1.5,32.25,1111122 
ENP,ioos.station.NOAA.NDBC:JKYF1:1,2017-10-08T18:00:00Z,25.0530,-80.9040,1.5,32.36,1111122 
ENP,ioos.station.NOAA.NDBC:JKYF1:1,2017-10-08T19:00:00Z,25.0530,-80.9040,1.5,32.41,1111122 
ENP,ioos.station.NOAA.NDBC:JKYF1:1,2017-10-08T20:00:00Z,25.0530,-80.9040,1.5,32.48,1111122 
ENP,ioos.station.NOAA.NDBC:JKYF1:1,2017-10-08T21:00:00Z,25.0530,-80.9040,1.5,32.85,1111122 
ENP,ioos.station.NOAA.NDBC:JKYF1:1,2017-10-08T22:00:00Z,25.0530,-80.9040,1.5,31.97,1111122 
ENP,ioos.station.NOAA.NDBC:JKYF1:1,2017-10-08T23:00:00Z,25.0530,-80.9040,1.5,31.45,1111122 
ENP,ioos.station.NOAA.NDBC:JKYF1:1,2017-10-09T00:00:00Z,25.0530,-80.9040,1.5,31.34,1111122 
ENP,ioos.station.NOAA.NDBC:JKYF1:1,2017-10-09T02:00:00Z,25.0530,-80.9040,1.5,31.34,1111122 
ENP,ioos.station.NOAA.NDBC:JKYF1:1,2017-10-09T03:00:00Z,25.0530,-80.9040,1.5,31.54,1111122 
ENP,ioos.station.NOAA.NDBC:JKYF1:1,2017-10-09T05:00:00Z,25.0530,-80.9040,1.5,31.95,1111122 
ENP,ioos.station.NOAA.NDBC:JKYF1:1,2017-10-09T06:00:00Z,25.0530,-80.9040,1.5,32.09,1111122 
ENP,ioos.station.NOAA.NDBC:JKYF1:1,2017-10-09T07:00:00Z,25.0530,-80.9040,1.5,32.15,1111122 
ENP,ioos.station.NOAA.NDBC:JKYF1:1,2017-10-09T10:00:00Z,25.0530,-80.9040,1.5,31.42,1111122 
ENP,ioos.station.NOAA.NDBC:JKYF1:1,2017-10-09T11:00:00Z,25.0530,-80.9040,1.5,31.31,1111122 
ENP,ioos.station.NOAA.NDBC:JKYF1:1,2017-10-09T12:00:00Z,25.0530,-80.9040,1.5,31.29,1111122 
ENP,ioos.station.NOAA.NDBC:JKYF1:1,2017-10-09T13:00:00Z,25.0530,-80.9040,1.5,31.26,1111122 
ENP,ioos.station.NOAA.NDBC:JKYF1:1,2017-10-09T14:00:00Z,25.0530,-80.9040,1.5,31.26,1111122 
ENP,ioos.station.NOAA.NDBC:JKYF1:1,2017-10-09T15:00:00Z,25.0530,-80.9040,1.5,31.29,1111122 
ENP,ioos.station.NOAA.NDBC:JKYF1:1,2017-10-09T16:00:00Z,25.0530,-80.9040,1.5,31.36,1111122 
ENP,ioos.station.NOAA.NDBC:JKYF1:1,2017-10-09T18:00:00Z,25.0530,-80.9040,1.5,31.45,1111122 
ENP,ioos.station.NOAA.NDBC:JKYF1:1,2017-10-09T19:00:00Z,25.0530,-80.9040,1.5,31.55,1111122 
ENP,ioos.station.NOAA.NDBC:JKYF1:1,2017-10-09T20:00:00Z,25.0530,-80.9040,1.5,31.56,1111122 
ENP,ioos.station.NOAA.NDBC:JKYF1:1,2017-10-09T21:00:00Z,25.0530,-80.9040,1.5,31.62,1111122 
ENP,ioos.station.NOAA.NDBC:JKYF1:1,2017-10-09T22:00:00Z,25.0530,-80.9040,1.5,32.05,1111122 
ENP,ioos.station.NOAA.NDBC:JKYF1:1,2017-10-09T23:00:00Z,25.0530,-80.9040,1.5,32.1,1111122 
ENP,ioos.station.NOAA.NDBC:JKYF1:1,2017-10-10T00:00:00Z,25.0530,-80.9040,1.5,31.85,1111122 
ENP,ioos.station.NOAA.NDBC:JKYF1:1,2017-10-10T02:00:00Z,25.0530,-80.9040,1.5,31.72,1111122 
ENP,ioos.station.NOAA.NDBC:JKYF1:1,2017-10-10T03:00:00Z,25.0530,-80.9040,1.5,31.66,1111122 
ENP,ioos.station.NOAA.NDBC:JKYF1:1,2017-10-10T05:00:00Z,25.0530,-80.9040,1.5,31.74,1111122 
ENP,ioos.station.NOAA.NDBC:JKYF1:1,2017-10-10T06:00:00Z,25.0530,-80.9040,1.5,32.06,1111122 
ENP,ioos.station.NOAA.NDBC:JKYF1:1,2017-10-10T07:00:00Z,25.0530,-80.9040,1.5,32.18,1111122 
ENP,ioos.station.NOAA.NDBC:JKYF1:1,2017-10-10T08:00:00Z,25.0530,-80.9040,1.5,32.17,1111122 
ENP,ioos.station.NOAA.NDBC:JKYF1:1,2017-10-10T10:00:00Z,25.0530,-80.9040,1.5,32.13,1111122 
ENP,ioos.station.NOAA.NDBC:JKYF1:1,2017-10-10T11:00:00Z,25.0530,-80.9040,1.5,31.9,1111122 
ENP,ioos.station.NOAA.NDBC:JKYF1:1,2017-10-10T12:00:00Z,25.0530,-80.9040,1.5,31.94,1111122 
ENP,ioos.station.NOAA.NDBC:JKYF1:1,2017-10-10T13:00:00Z,25.0530,-80.9040,1.5,31.93,1111122 
ENP,ioos.station.NOAA.NDBC:JKYF1:1,2017-10-10T14:00:00Z,25.0530,-80.9040,1.5,32.01,1111122 
ENP,ioos.station.NOAA.NDBC:JKYF1:1,2017-10-10T15:00:00Z,25.0530,-80.9040,1.5,32.2,1111122 
ENP,ioos.station.NOAA.NDBC:JKYF1:1,2017-10-10T16:00:00Z,25.0530,-80.9040,1.5,32.38,1111122 
ENP,ioos.station.NOAA.NDBC:JKYF1:1,2017-10-10T17:00:00Z,25.0530,-80.9040,1.5,32.44,1111122 
ENP,ioos.station.NOAA.NDBC:JKYF1:1,2017-10-10T18:00:00Z,25.0530,-80.9040,1.5,32.5,1111122 
ENP,ioos.station.NOAA.NDBC:JKYF1:1,2017-10-10T19:00:00Z,25.0530,-80.9040,1.5,32.52,1111122 
ENP,ioos.station.NOAA.NDBC:JKYF1:1,2017-10-10T20:00:00Z,25.0530,-80.9040,1.5,32.56,1111122 
ENP,ioos.station.NOAA.NDBC:JKYF1:1,2017-10-10T21:00:00Z,25.0530,-80.9040,1.5,32.6,1111122 
ENP,ioos.station.NOAA.NDBC:JKYF1:1,2017-10-10T22:00:00Z,25.0530,-80.9040,1.5,32.63,1111122 
ENP,ioos.station.NOAA.NDBC:JKYF1:1,2017-10-10T23:00:00Z,25.0530,-80.9040,1.5,32.63,1111122 
ENP,ioos.station.NOAA.NDBC:JKYF1:1,2017-10-11T00:00:00Z,25.0530,-80.9040,1.5,32.73,1111122 
ENP,ioos.station.NOAA.NDBC:JKYF1:1,2017-10-11T02:00:00Z,25.0530,-80.9040,1.5,32.77,1111122 
ENP,ioos.station.NOAA.NDBC:JKYF1:1,2017-10-11T03:00:00Z,25.0530,-80.9040,1.5,32.7,1111122 
ENP,ioos.station.NOAA.NDBC:JKYF1:1,2017-10-11T05:00:00Z,25.0530,-80.9040,1.5,32.6,1111122 
ENP,ioos.station.NOAA.NDBC:JKYF1:1,2017-10-11T06:00:00Z,25.0530,-80.9040,1.5,32.44,1111122 
ENP,ioos.station.NOAA.NDBC:JKYF1:1,2017-10-11T07:00:00Z,25.0530,-80.9040,1.5,32.38,1111122 
ENP,ioos.station.NOAA.NDBC:JKYF1:1,2017-10-11T08:00:00Z,25.0530,-80.9040,1.5,32.26,1111122 
ENP,ioos.station.NOAA.NDBC:JKYF1:1,2017-10-11T10:00:00Z,25.0530,-80.9040,1.5,32.41,1111122 
ENP,ioos.station.NOAA.NDBC:JKYF1:1,2017-10-11T13:00:00Z,25.0530,-80.9040,1.5,32.65,1111122 
ENP,ioos.station.NOAA.NDBC:JKYF1:1,2017-10-11T14:00:00Z,25.0530,-80.9040,1.5,32.63,1111122 
ENP,ioos.station.NOAA.NDBC:JKYF1:1,2017-10-11T15:00:00Z,25.0530,-80.9040,1.5,32.62,1111122 
ENP,ioos.station.NOAA.NDBC:JKYF1:1,2017-10-11T16:00:00Z,25.0530,-80.9040,1.5,32.65,1111122 
ENP,ioos.station.NOAA.NDBC:JKYF1:1,2017-10-11T17:00:00Z,25.0530,-80.9040,1.5,32.5,1111122 
ENP,ioos.station.NOAA.NDBC:JKYF1:1,2017-10-11T18:00:00Z,25.0530,-80.9040,1.5,32.46,1111122 
ENP,ioos.station.NOAA.NDBC:JKYF1:1,2017-10-11T19:00:00Z,25.0530,-80.9040,1.5,32.36,1111122 
ENP,ioos.station.NOAA.NDBC:JKYF1:1,2017-10-11T20:00:00Z,25.0530,-80.9040,1.5,32.33,1111122 
ENP,ioos.station.NOAA.NDBC:JKYF1:1,2017-10-11T21:00:00Z,25.0530,-80.9040,1.5,32.34,1111122 
ENP,ioos.station.NOAA.NDBC:JKYF1:1,2017-10-11T22:00:00Z,25.0530,-80.9040,1.5,32.36,1111122 
ENP,ioos.station.NOAA.NDBC:JKYF1:1,2017-10-11T23:00:00Z,25.0530,-80.9040,1.5,32.39,1111122 
ENP,ioos.station.NOAA.NDBC:JKYF1:1,2017-10-12T00:00:00Z,25.0530,-80.9040,1.5,32.38,1111122 
ENP,ioos.station.NOAA.NDBC:JKYF1:1,2017-10-12T02:00:00Z,25.0530,-80.9040,1.5,32.56,1111122 
ENP,ioos.station.NOAA.NDBC:JKYF1:1,2017-10-12T03:00:00Z,25.0530,-80.9040,1.5,32.48,1111122 
ENP,ioos.station.NOAA.NDBC:JKYF1:1,2017-10-12T05:00:00Z,25.0530,-80.9040,1.5,32.34,1111122 
ENP,ioos.station.NOAA.NDBC:JKYF1:1,2017-10-12T06:00:00Z,25.0530,-80.9040,1.5,32.28,1111122 
ENP,ioos.station.NOAA.NDBC:JKYF1:1,2017-10-12T07:00:00Z,25.0530,-80.9040,1.5,32.26,1111122 
ENP,ioos.station.NOAA.NDBC:JKYF1:1,2017-10-12T08:00:00Z,25.0530,-80.9040,1.5,32.2,1111122 
ENP,ioos.station.NOAA.NDBC:JKYF1:1,2017-10-12T11:00:00Z,25.0530,-80.9040,1.5,32.28,1111122 
ENP,ioos.station.NOAA.NDBC:JKYF1:1,2017-10-12T12:00:00Z,25.0530,-80.9040,1.5,32.36,1111122 
ENP,ioos.station.NOAA.NDBC:JKYF1:1,2017-10-12T13:00:00Z,25.0530,-80.9040,1.5,32.5,1111122 
ENP,ioos.station.NOAA.NDBC:JKYF1:1,2017-10-12T14:00:00Z,25.0530,-80.9040,1.5,32.49,1111122 
ENP,ioos.station.NOAA.NDBC:JKYF1:1,2017-10-12T15:00:00Z,25.0530,-80.9040,1.5,32.42,1111122 
ENP,ioos.station.NOAA.NDBC:JKYF1:1,2017-10-12T16:00:00Z,25.0530,-80.9040,1.5,32.38,1111122 
ENP,ioos.station.NOAA.NDBC:JKYF1:1,2017-10-12T17:00:00Z,25.0530,-80.9040,1.5,32.33,1111122 
ENP,ioos.station.NOAA.NDBC:JKYF1:1,2017-10-12T18:00:00Z,25.0530,-80.9040,1.5,32.3,1111122 
ENP,ioos.station.NOAA.NDBC:JKYF1:1,2017-10-12T19:00:00Z,25.0530,-80.9040,1.5,32.33,1111122 
ENP,ioos.station.NOAA.NDBC:JKYF1:1,2017-10-12T20:00:00Z,25.0530,-80.9040,1.5,32.33,1111122 
ENP,ioos.station.NOAA.NDBC:JKYF1:1,2017-10-12T21:00:00Z,25.0530,-80.9040,1.5,32.31,1111122 
ENP,ioos.station.NOAA.NDBC:JKYF1:1,2017-10-12T22:00:00Z,25.0530,-80.9040,1.5,32.28,1111122 
ENP,ioos.station.NOAA.NDBC:JKYF1:1,2017-10-12T23:00:00Z,25.0530,-80.9040,1.5,32.12,1111122 
ENP,ioos.station.NOAA.NDBC:JKYF1:1,2017-10-13T00:00:00Z,25.0530,-80.9040,1.5,32.1,1111122 
ENP,ioos.station.NOAA.NDBC:JKYF1:1,2017-10-13T02:00:00Z,25.0530,-80.9040,1.5,32.21,1111122 
ENP,ioos.station.NOAA.NDBC:JKYF1:1,2017-10-13T03:00:00Z,25.0530,-80.9040,1.5,32.27,1111122 
ENP,ioos.station.NOAA.NDBC:JKYF1:1,2017-10-13T05:00:00Z,25.0530,-80.9040,1.5,32.11,1111122 
ENP,ioos.station.NOAA.NDBC:JKYF1:1,2017-10-13T06:00:00Z,25.0530,-80.9040,1.5,32.02,1111122 
ENP,ioos.station.NOAA.NDBC:JKYF1:1,2017-10-13T07:00:00Z,25.0530,-80.9040,1.5,31.96,1111122 
ENP,ioos.station.NOAA.NDBC:JKYF1:1,2017-10-13T08:00:00Z,25.0530,-80.9040,1.5,31.88,1111122 
ENP,ioos.station.NOAA.NDBC:JKYF1:1,2017-10-13T10:00:00Z,25.0530,-80.9040,1.5,31.73,1111122 
ENP,ioos.station.NOAA.NDBC:JKYF1:1,2017-10-13T11:00:00Z,25.0530,-80.9040,1.5,31.7,1111122 
ENP,ioos.station.NOAA.NDBC:JKYF1:1,2017-10-13T12:00:00Z,25.0530,-80.9040,1.5,31.73,1111122 
ENP,ioos.station.NOAA.NDBC:JKYF1:1,2017-10-13T13:00:00Z,25.0530,-80.9040,1.5,31.83,1111122 
ENP,ioos.station.NOAA.NDBC:JKYF1:1,2017-10-13T14:00:00Z,25.0530,-80.9040,1.5,31.95,1111122 
ENP,ioos.station.NOAA.NDBC:JKYF1:1,2017-10-13T15:00:00Z,25.0530,-80.9040,1.5,32.02,1111122 
ENP,ioos.station.NOAA.NDBC:JKYF1:1,2017-10-13T16:00:00Z,25.0530,-80.9040,1.5,32.06,1111122 
ENP,ioos.station.NOAA.NDBC:JKYF1:1,2017-10-13T17:00:00Z,25.0530,-80.9040,1.5,32.01,1111122 
ENP,ioos.station.NOAA.NDBC:JKYF1:1,2017-10-13T18:00:00Z,25.0530,-80.9040,1.5,31.95,1111122 
ENP,ioos.station.NOAA.NDBC:JKYF1:1,2017-10-13T19:00:00Z,25.0530,-80.9040,1.5,31.97,1111122 
ENP,ioos.station.NOAA.NDBC:JKYF1:1,2017-10-13T20:00:00Z,25.0530,-80.9040,1.5,31.93,1111122 